Retour au catalogue

SKYSAT C9

ActifScienceSSO
NORAD 42989·PAYLOAD·🇺🇸 United States

Lancé Oct 31, 2017 depuis Vandenberg Space Force Base

Loading…

Prochains Passages (prochaines 24 heures)

TLE

FraisSource: CelesTrak SupGP

Époque: Sep 14, 2026, 20:49 UTC

1 42989C 17068C   26257.86789352  .00009921  00000+0  22149-3 0  2572
2 42989  97.4552  37.5798 0008242 164.2608  81.6328 15.43535012    16

Suivez SKYSAT C9 en temps réel avec AllMySat

Download on the App Store